Location: Unspecified
(30.8073°N, 0.0000°E)
Time: 19:30:22
(UTC+00:00)

Hubble Space Telescope - Visible Passes

Search period start: 17 June 2019 00:00
Search period end: 27 June 2019 00:00
Orbit: 536 x 540 km, 28.5° (Epoch: 16 June)

Date Brightness Start Highest point End Pass type
(mag) Time Alt. Az. Time Alt. Az. Time Alt. Az.
17 Jun 2.6 02:20:36 23° ESE 02:20:36 23° ESE 02:22:19 10° E visible
17 Jun 0.9 03:55:57 14° W 03:59:20 57° S 04:03:22 10° ESE visible
18 Jun 3.1 02:10:44 17° E 02:10:44 17° E 02:11:48 10° E visible
18 Jun 0.9 03:46:05 19° W 03:48:48 53° S 03:52:48 10° ESE visible
19 Jun 3.5 02:01:01 12° E 02:01:01 12° E 02:01:17 10° E visible
19 Jun 1.0 03:36:22 27° WSW 03:38:15 47° SSW 03:42:12 10° ESE visible
20 Jun 1.2 03:26:51 36° SW 03:27:42 41° SSW 03:31:35 10° ESE visible
21 Jun 1.5 03:17:32 34° S 03:17:32 34° S 03:20:54 10° SE visible
22 Jun 2.5 03:08:30 20° SSE 03:08:30 20° SSE 03:10:10 10° SE visible
23 Jun 2.6 19:59:33 10° S 20:01:43 14° SSE 20:02:06 14° SSE visible
24 Jun 2.4 19:48:19 10° SSW 19:51:05 17° SSE 19:53:12 13° ESE visible
24 Jun 3.1 21:27:57 10° WSW 21:28:35 14° WSW 21:28:35 14° WSW visible
25 Jun 2.1 19:37:18 10° SSW 19:40:29 21° SSE 19:43:40 10° ESE visible
25 Jun 2.2 21:17:20 10° WSW 21:19:24 27° SW 21:19:24 27° SW visible
26 Jun 1.9 19:26:25 10° SW 19:29:53 26° SSE 19:33:22 10° ESE visible
26 Jun 1.3 21:06:45 10° WSW 21:09:59 46° SW 21:09:59 46° SW visible
